This demonstration page uses our WeatherBlox Daily Observations layout. Learn more.

Left ArrowRight Arrow

38.89511, -77.03637

Hourly Observations for April 13, 2021

Temp ( °F °C ) Dew Point ( °F °C ) Humidity (%) Winds ( mph kmh ) Pressure ( in mb ) Visibility ( mi km ) Precip ( " mm )
12:15 am 00:15 Cloudy 51 10.6 46 7.8 83 83 NE 7 11 29.95 1014 10 16.0934 0 0
12:52 am 00:52 Cloudy with Light Rain 51 10.6 46 7.8 83 83 ENE 7 11 29.96 1014 10 16.0934 0.001 0.001
1:52 am 01:52 Cloudy 51 10.6 46 7.8 83 83 Calm 29.96 1015 10 16.0934 0.001 0.001
2:06 am 02:06 Cloudy with Light Rain 51 10.6 45 7.2 80 80 ESE 5 7 29.96 1015 10 16.0934 0.001 0.001
2:27 am 02:27 Cloudy 51 10.6 46 7.8 83 83 ENE 3 6 29.96 1015 10 16.0934 0.001 0.001
2:52 am 02:52 Cloudy with Light Rain 51 10.6 46 7.8 83 83 NE 5 7 29.97 1015 10 16.0934 0.001 0.001
3:52 am 03:52 Cloudy with Light Rain 51 10.6 46 7.8 83 83 ENE 9 15 29.96 1015 10 16.0934 0.001 0.001
4:52 am 04:52 Cloudy 51 10.6 46 7.8 83 83 Calm 29.99 1016 10 16.0934 0.001 0.001
5:52 am 05:52 Cloudy 51 10.6 46 7.8 83 83 WNW 3 6 30.02 1017 10 16.0934 0 0
6:52 am 06:52 Cloudy 51 10.6 46 7.8 83 83 N 6 9 30.04 1017 10 16.0934 0 0
7:35 am 07:35 Cloudy 52 11.1 46 7.8 80 80 NNW 7 11 30.04 1017 10 16.0934 0 0
7:52 am 07:52 Cloudy 52 11.1 47 8.3 83 83 NNW 6 9 30.05 1018 10 16.0934 0 0
8:00 am 08:00 Cloudy 52 11.1 46 7.8 80 80 N 6 9 30.05 1018 10 16.0934 0 0
8:47 am 08:47 Cloudy 54 12 46 8 77 77 N 5 7 30.06 1018 10 16.0934 0 0
8:52 am 08:52 Cloudy 54 12.2 47 8.3 77 77 N 5 7 30.06 1018 10 16.0934 0 0
9:05 am 09:05 Cloudy 54 12.2 47 8.3 77 77 N 5 7 30.07 1018 9 14.48406 0 0
9:23 am 09:23 Cloudy 55 12.8 48 8.9 77 77 NNW 5 7 30.07 1018 10 16.0934 0 0
9:52 am 09:52 Cloudy 56 13.3 48 8.9 75 75 N 5 7 30.07 1018 9 14.48406 0 0
10:52 am 10:52 Cloudy 58 14.4 49 9.4 72 72 NNW 5 7 30.09 1019 9 14.48406 0 0
11:52 am 11:52 Cloudy 59 15 49 9.4 69 69 NNW 6 9 30.09 1019 10 16.0934 0 0
12:52 pm 12:52 Cloudy 61 16.1 49 9.4 65 65 N 8 13 30.09 1019 10 16.0934 0 0
1:07 pm 13:07 Cloudy 61 16.1 49 9.4 65 65 N 8 13 30.09 1019 10 16.0934 0 0
1:52 pm 13:52 Mostly Cloudy 62 16.7 49 9.4 62 62 N 10 17 30.09 1019 10 16.0934 0 0
2:52 pm 14:52 Mostly Cloudy 64 17.8 49 9.4 58 58 N 9 15 30.08 1019 10 16.0934 0 0
3:52 pm 15:52 Partly Cloudy 66 18.9 48 8.9 52 52 NNE 9 15 30.05 1018 10 16.0934 0 0
4:52 pm 16:52 Partly Cloudy 67 19.4 48 8.9 51 51 VRB 3 6 30.04 1017 10 16.0934 0 0
5:52 pm 17:52 Mostly Cloudy 67 19.4 48 8.9 51 51 NNE 7 11 30.04 1017 10 16.0934 0 0
6:52 pm 18:52 Mostly Cloudy 65 18.3 49 9.4 56 56 NE 5 7 30.05 1018 10 16.0934 0 0
7:52 pm 19:52 Mostly Cloudy 63 17.2 48 8.9 58 58 ESE 12 19 30.05 1018 10 16.0934 0 0
8:52 pm 20:52 Partly Cloudy 59 15 49 9.4 69 69 SE 6 9 30.08 1019 10 16.0934 0 0
9:52 pm 21:52 Partly Cloudy 58 14.4 49 9.4 72 72 S 8 13 30.1 1019 10 16.0934 0 0
10:52 pm 22:52 Partly Cloudy 56 13.3 48 8.9 75 75 SSW 6 9 30.11 1020 10 16.0934 0 0
11:52 pm 23:52 Mostly Cloudy 56 13.3 48 8.9 75 75 SSW 3 6 30.12 1020 10 16.0934 0 0

Powered by AerisWeather